Westminster, MD

6:46 AM EST on December 11, 2017 (GMT -0500)
Carroll County Regional-Poage

Weather History for KDMW - October, 2011

Change the Weather History Date:

Sunday, October 16, 2011

  Actual Average (KTHV) Record (KTHV)
Temperature  
Mean Temperature 60 °F -  
Max Temperature 69 °F 0 °F 77 °F (2008)
Min Temperature 50 °F - 28 °F (2006)
Degree Days  
Heating Degree Days 6    
Growing Degree Days 10 (Base 50)    
Moisture  
Dew Point 37 °F    
Average Humidity 43    
Maximum Humidity 62    
Minimum Humidity 28    
Precipitation  
Precipitation 0.00 in - - ()
Sea Level Pressure  
Sea Level Pressure 29.90 in    
Wind  
Wind Speed 10 mph (SW)    
Max Wind Speed 18 mph    
Max Gust Speed 24 mph    
Visibility 10 miles    
Events      
Averages and records for this station are not official NWS values.
T = Trace of Precipitation, MM = Missing Value Source: NWS Daily Summary

Daily Weather History Graph

Daily Weather History Graph

Search for Another Location

Airport or City:

Trip Planner

Search our weather history database for the weather conditions in past years. The results will help you decide how hot, cold, wet, or windy it might be!

Date:

Astronomy

Oct. 16, 2011 Rise Set
Actual Time 7:18 AM EDT 6:27 PM EDT
Civil Twilight 6:51 AM EDT 6:54 PM EDT
Nautical Twilight 6:20 AM EDT 7:26 PM EDT
Astronomical Twilight 5:49 AM EDT 7:57 PM EDT
Moon 9:12 PM EDT (10/16) 11:33 AM EDT (10/16)
Length of Visible Light 12h 03m
Length of Day
11h 08m
Waning Gibbous, 82% of the Moon is Illuminated
Oct 16
Waning Gibbous
Oct 19
Last Quarter
Oct 26
New
Nov 2
First Quarter
Nov 10
Full

Hourly Weather History & Observations

Time (EDT) Temp. Dew Point Humidity Pressure Visibility Wind Dir Wind Speed Gust Speed Precip Events Conditions
12:13 AM 57.2 °F 30.2 °F 36% 29.91 in 10.0 mi West 6.9 mph - N/A   Clear
12:34 AM 55.4 °F 30.2 °F 38% 29.91 in 10.0 mi West 5.8 mph - N/A   Scattered Clouds
12:55 AM 55.4 °F 30.2 °F 38% 29.92 in 10.0 mi West 6.9 mph - N/A   Scattered Clouds
1:16 AM 55.4 °F 28.4 °F 36% 29.92 in 10.0 mi West 8.1 mph - N/A   Clear
1:37 AM 55.4 °F 30.2 °F 38% 29.92 in 10.0 mi WSW 8.1 mph - N/A   Clear
2:01 AM 55.4 °F 30.2 °F 38% 29.92 in 10.0 mi West 9.2 mph - N/A   Clear
2:43 AM 55.4 °F 30.2 °F 38% 29.93 in 10.0 mi West 11.5 mph - N/A   Clear
3:04 AM 55.4 °F 30.2 °F 38% 29.93 in 10.0 mi West 10.4 mph - N/A   Clear
3:25 AM 55.4 °F 32.0 °F 41% 29.92 in 10.0 mi West 8.1 mph - N/A   Clear
3:46 AM 53.6 °F 32.0 °F 44% 29.93 in 10.0 mi WSW 9.2 mph - N/A   Clear
4:07 AM 55.4 °F 33.8 °F 44% 29.92 in 10.0 mi West 10.4 mph - N/A   Clear
4:28 AM 55.4 °F 32.0 °F 41% 29.93 in 10.0 mi West 12.7 mph - N/A   Clear
4:52 AM 55.4 °F 33.8 °F 44% 29.93 in 10.0 mi West 12.7 mph - N/A   Clear
5:13 AM 55.4 °F 33.8 °F 44% 29.94 in 10.0 mi WSW 9.2 mph - N/A   Clear
5:34 AM 53.6 °F 33.8 °F 47% 29.95 in 10.0 mi WSW 6.9 mph - N/A   Clear
5:55 AM 53.6 °F 35.6 °F 51% 29.96 in 10.0 mi SW 5.8 mph - N/A   Clear
6:16 AM 51.8 °F 35.6 °F 54% 29.96 in 10.0 mi SW 5.8 mph - N/A   Clear
6:37 AM 50.0 °F 35.6 °F 58% 29.97 in 10.0 mi SSW 4.6 mph - N/A   Clear
6:58 AM 50.0 °F 37.4 °F 62% 29.97 in 10.0 mi South 6.9 mph - N/A   Clear
7:19 AM 50.0 °F 37.4 °F 62% 29.97 in 10.0 mi SW 6.9 mph - N/A   Clear
7:40 AM 50.0 °F 37.4 °F 62% 29.97 in 10.0 mi SW 6.9 mph - N/A   Clear
8:01 AM 51.8 °F 37.4 °F 58% 29.98 in 10.0 mi SW 5.8 mph - N/A   Clear
8:25 AM 51.8 °F 37.4 °F 58% 29.99 in 10.0 mi SW 6.9 mph - N/A   Clear
8:46 AM 53.6 °F 37.4 °F 54% 30.00 in 10.0 mi SW 8.1 mph - N/A   Clear
9:07 AM 55.4 °F 37.4 °F 51% 29.99 in 10.0 mi SW 9.2 mph - N/A   Clear
9:28 AM 57.2 °F 39.2 °F 51% 30.00 in 10.0 mi SW 9.2 mph - N/A   Clear
9:49 AM 57.2 °F 37.4 °F 48% 29.99 in 10.0 mi SW 10.4 mph 19.6 mph N/A   Clear
10:10 AM 59.0 °F 39.2 °F 48% 29.99 in 10.0 mi SW 12.7 mph 18.4 mph N/A   Clear
10:31 AM 60.8 °F 37.4 °F 42% 29.98 in 10.0 mi WSW 11.5 mph 18.4 mph N/A   Clear
10:52 AM 60.8 °F 35.6 °F 39% 29.98 in 10.0 mi SW 13.8 mph 24.2 mph N/A   Clear
11:13 AM 62.6 °F 35.6 °F 37% 29.97 in 10.0 mi SW 15.0 mph - N/A   Clear
11:34 AM 62.6 °F 35.6 °F 37% 29.97 in 10.0 mi WSW 13.8 mph 18.4 mph N/A   Clear
11:58 AM 64.4 °F 35.6 °F 34% 29.97 in 10.0 mi SW 11.5 mph 17.3 mph N/A   Clear
12:19 PM 64.4 °F 35.6 °F 34% 29.98 in 10.0 mi WSW 15.0 mph 21.9 mph N/A   Clear
12:40 PM 64.4 °F 35.6 °F 34% 29.97 in 10.0 mi WSW 11.5 mph 19.6 mph N/A   Clear
1:01 PM 64.4 °F 35.6 °F 34% 29.96 in 10.0 mi WSW 9.2 mph - N/A   Clear
1:19 PM 66.2 °F 37.4 °F 35% 29.94 in 10.0 mi SW 18.4 mph 24.2 mph N/A   Clear
1:43 PM 64.4 °F 35.6 °F 34% 29.93 in 10.0 mi WSW 15.0 mph 18.4 mph N/A   Clear
2:04 PM 68.0 °F 35.6 °F 30% 29.91 in 10.0 mi SW 11.5 mph 19.6 mph N/A   Scattered Clouds
2:25 PM 68.0 °F 37.4 °F 33% 29.89 in 10.0 mi SSW 12.7 mph 18.4 mph N/A   Scattered Clouds
2:46 PM 68.0 °F 37.4 °F 33% 29.88 in 10.0 mi SSW 12.7 mph 20.7 mph N/A   Clear
3:31 PM 69.8 °F 35.6 °F 28% 29.84 in 10.0 mi SW 15.0 mph 20.7 mph N/A   Clear
3:52 PM 69.8 °F 39.2 °F 33% 29.84 in 10.0 mi South 10.4 mph 20.7 mph N/A   Clear
4:13 PM 69.8 °F 39.2 °F 33% 29.82 in 10.0 mi South 12.7 mph 20.7 mph N/A   Clear
4:34 PM 69.8 °F 39.2 °F 33% 29.82 in 10.0 mi SSW 13.8 mph 17.3 mph N/A   Clear
4:55 PM 68.0 °F 41.0 °F 37% 29.80 in 10.0 mi South 13.8 mph 17.3 mph N/A   Scattered Clouds
5:16 PM 68.0 °F 41.0 °F 37% 29.79 in 10.0 mi South 10.4 mph 18.4 mph N/A   Scattered Clouds
5:37 PM 66.2 °F 41.0 °F 40% 29.77 in 10.0 mi South 9.2 mph 17.3 mph N/A   Clear
5:58 PM 66.2 °F 41.0 °F 40% 29.76 in 10.0 mi South 11.5 mph 17.3 mph N/A   Clear
6:19 PM 64.4 °F 42.8 °F 45% 29.75 in 10.0 mi South 10.4 mph 17.3 mph N/A   Clear
6:40 PM 64.4 °F 44.6 °F 49% 29.74 in 10.0 mi South 13.8 mph 19.6 mph N/A   Clear
7:04 PM 64.4 °F 46.4 °F 52% 29.74 in 10.0 mi South 15.0 mph 20.7 mph N/A   Clear
7:25 PM 62.6 °F 46.4 °F 55% 29.75 in 10.0 mi SSW 13.8 mph 20.7 mph N/A   Clear
7:46 PM 62.6 °F 46.4 °F 55% 29.75 in 10.0 mi SSW 15.0 mph 21.9 mph N/A   Clear
8:07 PM 62.6 °F 46.4 °F 55% 29.74 in 10.0 mi South 12.7 mph 24.2 mph N/A   Clear
8:28 PM 64.4 °F 46.4 °F 52% 29.74 in 10.0 mi SSW 16.1 mph 21.9 mph N/A   Clear
8:49 PM 64.4 °F 46.4 °F 52% 29.74 in 10.0 mi SSW 16.1 mph 20.7 mph N/A   Mostly Cloudy
9:10 PM 64.4 °F 46.4 °F 52% 29.73 in 10.0 mi SSW 16.1 mph 20.7 mph N/A   Mostly Cloudy
9:31 PM 64.4 °F 46.4 °F 52% 29.72 in 10.0 mi SSW 17.3 mph 21.9 mph N/A   Scattered Clouds
9:52 PM 64.4 °F 44.6 °F 49% 29.72 in 10.0 mi SSW 18.4 mph 23.0 mph N/A   Clear
10:13 PM 64.4 °F 46.4 °F 52% 29.72 in 10.0 mi SSW 15.0 mph 21.9 mph N/A   Clear
10:37 PM 64.4 °F 46.4 °F 52% 29.71 in 10.0 mi SSW 13.8 mph 25.3 mph N/A   Clear
10:58 PM 64.4 °F 46.4 °F 52% 29.70 in 10.0 mi SSW 11.5 mph 21.9 mph N/A   Clear
11:19 PM 64.4 °F 46.4 °F 52% 29.69 in 10.0 mi SSW 12.7 mph - N/A   Scattered Clouds
11:40 PM 64.4 °F 46.4 °F 52% 29.69 in 10.0 mi SSW 12.7 mph 18.4 mph N/A   Scattered Clouds